Weather History for KHDN - October, 2011

Change the Weather History Date:

Tuesday, October 25, 2011

  Actual Average Record
Temperature  
Mean Temperature 45 °F -  
Max Temperature 53 °F 57 °F 73 °F (1959)
Min Temperature 37 °F 26 °F 2 °F (1975)
Degree Days  
Heating Degree Days 20    
Moisture  
Dew Point 27 °F    
Average Humidity 50    
Maximum Humidity 93    
Minimum Humidity 28    
Precipitation  
Precipitation 0.06 in - - ()
Sea Level Pressure  
Sea Level Pressure 30.05 in    
Wind  
Wind Speed 9 mph (WSW)    
Max Wind Speed 14 mph    
Max Gust Speed -    
Visibility 10 miles    
Events      
Averages and records for this station are not official NWS values.
T = Trace of Precipitation, MM = Missing Value Source: NWS Daily Summary

Daily Weather History Graph

Daily Weather History Graph

Search for Another Location

Airport or City:

Trip Planner

Search our weather history database for the weather conditions in past years. The results will help you decide how hot, cold, wet, or windy it might be!

Date:

Astronomy

Oct. 25, 2011 Rise Set
Actual Time 7:30 AM MDT 6:14 PM MDT
Civil Twilight 7:02 AM MDT 6:42 PM MDT
Nautical Twilight 6:30 AM MDT 7:14 PM MDT
Astronomical Twilight 5:59 AM MDT 7:46 PM MDT
Moon 6:06 AM MDT (10/25) 5:18 PM MDT (10/25)
Length of Visible Light 11h 39m
Length of Day
10h 44m
Waning Crescent, 2% of the Moon is Illuminated
Oct 25
Waning Crescent
Oct 26
New
Nov 2
First Quarter
Nov 10
Full
Nov 18
Last Quarter

Hourly Weather History & Observations

Time (MDT) Temp. Windchill Dew Point Humidity Pressure Visibility Wind Dir Wind Speed Gust Speed Precip Events Conditions
12:15 AM 53.6 °F - 21.2 °F 28% 30.03 in 10.0 mi North - - N/A   Overcast
12:35 AM 51.8 °F - 21.2 °F 30% 30.03 in 10.0 mi North - - N/A   Scattered Clouds
1:15 AM 51.8 °F - 21.2 °F 30% 30.03 in 10.0 mi North - - N/A   Overcast
2:15 AM 51.8 °F - 24.8 °F 35% 30.03 in 10.0 mi North - - N/A   Mostly Cloudy
2:35 AM 51.8 °F - 21.2 °F 30% 30.03 in 10.0 mi North - - N/A   Mostly Cloudy
2:55 AM 51.8 °F - 23.0 °F 33% 30.04 in 10.0 mi North - - N/A   Overcast
3:15 AM 50.0 °F - 23.0 °F 35% 30.03 in 10.0 mi North - - N/A   Overcast
3:35 AM 48.2 °F - 23.0 °F 37% 30.03 in 10.0 mi North - - N/A   Overcast
3:55 AM 48.2 °F - 23.0 °F 37% 30.03 in 10.0 mi North - - N/A   Overcast
4:15 AM 48.2 °F - 23.0 °F 37% 30.03 in 10.0 mi North - - N/A   Overcast
4:35 AM 48.2 °F - 23.0 °F 37% 30.04 in 10.0 mi North - - N/A   Overcast
4:55 AM 44.6 °F - 21.2 °F 39% 30.05 in 10.0 mi North - - N/A   Overcast
5:15 AM 48.2 °F - 24.8 °F 40% 30.05 in 10.0 mi North - - N/A   Mostly Cloudy
5:35 AM 46.4 °F - 24.8 °F 43% 30.06 in 10.0 mi North - - N/A   Overcast
5:55 AM 46.4 °F - 24.8 °F 43% 30.07 in 10.0 mi North - - N/A   Mostly Cloudy
6:35 AM 42.8 °F - 24.8 °F 49% 30.05 in 10.0 mi North - - N/A   Scattered Clouds
6:55 AM 42.8 °F - 24.8 °F 49% 30.06 in 10.0 mi North - - N/A   Clear
7:15 AM 46.4 °F - 23.0 °F 40% 30.06 in 10.0 mi North - - N/A   Clear
7:55 AM 44.6 °F - 24.8 °F 46% 30.07 in 10.0 mi North - - N/A   Mostly Cloudy
8:15 AM 44.6 °F - 24.8 °F 46% 30.07 in 10.0 mi North - - N/A   Scattered Clouds
8:35 AM 42.8 °F - 24.8 °F 49% 30.07 in 10.0 mi North - - N/A   Partly Cloudy
8:55 AM 44.6 °F - 24.8 °F 46% 30.08 in 10.0 mi North - - N/A   Clear
9:15 AM 44.6 °F - 26.6 °F 49% 30.08 in 10.0 mi North - - N/A   Mostly Cloudy
9:35 AM 48.2 °F - 24.8 °F 40% 30.08 in 10.0 mi North - - N/A   Scattered Clouds
9:55 AM 50.0 °F - 24.8 °F 37% 30.07 in 10.0 mi North - - N/A   Mostly Cloudy
10:15 AM 48.2 °F - 26.6 °F 43% 30.07 in 10.0 mi North - - N/A   Overcast
10:35 AM 48.2 °F - 26.6 °F 43% 30.07 in 10.0 mi North - - N/A   Mostly Cloudy
11:15 AM 53.6 °F - 26.6 °F 35% 30.06 in 10.0 mi North - - N/A   Mostly Cloudy
11:35 AM 53.6 °F - 28.4 °F 38% 30.06 in 10.0 mi North - - N/A   Mostly Cloudy
11:55 AM 53.6 °F - 28.4 °F 38% 30.06 in 10.0 mi North - - N/A   Mostly Cloudy
1:15 PM 53.6 °F - 26.6 °F 35% 30.04 in 10.0 mi West 13.8 mph - N/A   Mostly Cloudy
1:35 PM 53.6 °F - 28.4 °F 38% 30.03 in 10.0 mi North - - N/A   Overcast
1:55 PM 53.6 °F - 28.4 °F 38% 30.02 in 10.0 mi North - - N/A   Overcast
2:55 PM 51.8 °F - 28.4 °F 41% 30.02 in 10.0 mi North - - N/A   Overcast
3:15 PM 51.8 °F - 30.2 °F 44% 30.02 in 10.0 mi North - - N/A   Overcast
3:35 PM 50.0 °F - 30.2 °F 47% 30.01 in 10.0 mi North - - N/A   Mostly Cloudy
3:55 PM 50.0 °F - 32.0 °F 50% 30.01 in 10.0 mi North - - N/A   Mostly Cloudy
4:35 PM 48.2 °F - 33.8 °F 58% 30.01 in 10.0 mi North - - N/A   Overcast
5:35 PM 42.8 °F - 33.8 °F 70% 30.03 in 7.0 mi North - - 0.01 in   Overcast
5:55 PM 42.8 °F - 33.8 °F 70% 30.05 in 5.0 mi North - - 0.01 in   Overcast
6:15 PM 41.0 °F - 35.6 °F 81% 30.05 in 9.0 mi North - - N/A   Overcast
6:35 PM 39.2 °F - 35.6 °F 87% 30.05 in 7.0 mi North - - 0.03 in   Overcast
7:15 PM 39.2 °F 33.6 °F 35.6 °F 87% 30.06 in 10.0 mi SSW 8.1 mph - N/A   Mostly Cloudy
7:35 PM 37.4 °F 33.8 °F 35.6 °F 93% 30.06 in 10.0 mi SSW 4.6 mph - N/A   Overcast
7:55 PM 37.4 °F - 35.6 °F 93% 30.06 in 10.0 mi North - - N/A   Overcast
8:15 PM 37.4 °F 32.1 °F 33.8 °F 87% 30.06 in 10.0 mi SW 6.9 mph - N/A   Overcast
8:35 PM 37.4 °F 32.8 °F 33.8 °F 87% 30.06 in 10.0 mi SW 5.8 mph - N/A   Overcast
8:55 PM 37.4 °F 32.8 °F 33.8 °F 87% 30.07 in 7.0 mi West 5.8 mph - N/A   Overcast
9:15 PM 37.4 °F 34.9 °F 33.8 °F 87% 30.07 in 5.0 mi NNE 3.5 mph - 0.02 in   Overcast
9:35 PM 37.4 °F 32.8 °F 33.8 °F 87% 30.06 in 10.0 mi ESE 5.8 mph - 0.02 in   Mostly Cloudy
9:55 PM 37.4 °F 33.8 °F 33.8 °F 87% 30.07 in 10.0 mi SSW 4.6 mph - 0.02 in   Overcast
10:15 PM 37.4 °F - 33.8 °F 87% 30.08 in 7.0 mi Calm Calm - N/A   Overcast
10:35 PM 37.4 °F - 33.8 °F 87% 30.07 in 8.0 mi Calm Calm - 0.01 in   Overcast
10:55 PM 37.4 °F 33.8 °F 33.8 °F 87% 30.08 in 10.0 mi SSE 4.6 mph - 0.01 in   Overcast
11:15 PM 37.4 °F 33.8 °F 32.0 °F 81% 30.08 in 10.0 mi SSW 4.6 mph - N/A   Overcast
11:35 PM 37.4 °F 33.8 °F 32.0 °F 81% 30.08 in 10.0 mi South 4.6 mph - N/A   Overcast